YON weather

Yongphulla Airport
Tashigang, Trashigang, Bhutan

Public forecast

Using degrees Celsius for public forecast. Weather courtesy of forecast.io.

METAR (pilot weather report)

Closest report is Lokpriya Gopinath Bordoloi International Airport, 69.2 nm (128.1 km) S. Retrieved 2019/09/17 10:30 UTC (0 seconds ago):

VEGT 171030Z 23003KT 4000 BR SCT018 FEW025CB BKN100 30/26 Q1007 NOSIG

TAF (pilot weather forecast)

Forecast is more than 12 hours old.

Closest forecast is Lokpriya Gopinath Bordoloi International Airport, 69.2 nm (128.1 km) S. Retrieved 2016/03/24 00:45 UTC (3 years ago):

TAF VEGT 242300Z 2500/2606 00000KT 2000 BR FEW020 BECMG 2503/2506 05008KT 4000 HZ BECMG 2506/2509 5000 HZ BECMG 2512/2514 00000KT 4000 HZ FEW020 SCT100 BECMG 2515/2518 2500 HZ BECMG 2603/2606 05008KT 4000 HZ FEW020=